W7YP Weather Reports


Display with metric or nautical units.
time (UTC)temp
F
wind
direction
speed
MPH
gust
MPH
rain 1hr
in
rain 24hr
in
rain mn
in
humidity
%
barometer
mb
20260506210341 64 300 1.0 11.0 0.00 0.00 0.00 38 1013.6
20260506205341 64 148 2.0 8.0 0.00 0.00 0.00 38 1013.7
20260506204837 64 325 0.0 10.0 0.00 0.00 0.00 38 1013.8
20260506204337 64 150 1.0 10.0 0.00 0.00 0.00 39 1013.8
20260506203837 63 155 2.0 9.0 0.00 0.00 0.00 39 1014.0
20260506203337 63 126 4.0 9.0 0.00 0.00 0.00 38 1014.0
20260506203104 63 180 3.0 9.0 0.00 0.00 0.00 39 1014.1
20260506202337 63 144 1.0 10.0 0.00 0.00 0.00 38 1014.0
20260506201833 63 169 1.0 10.0 0.00 0.00 0.00 42 1014.0
20260506201328 62 304 1.0 9.0 0.00 0.00 0.00 39 1014.3
20260506200823 62 192 1.0 10.0 0.00 0.00 0.00 40 1014.3
20260506200322 62 263 2.0 10.0 0.00 0.00 0.00 39 1014.4
20260506195823 61 90 2.0 10.0 0.00 0.00 0.00 39 1014.5
20260506195541 61 199 1.0 11.0 0.00 0.00 0.00 39 1014.6
20260506194813 61 117 4.0 11.0 0.00 0.00 0.00 38 1014.5
20260506194313 62 211 2.0 8.0 0.00 0.00 0.00 40 1014.7
20260506193813 61 277 1.0 10.0 0.00 0.00 0.00 40 1014.7
20260506193303 61 335 1.0 12.0 0.00 0.00 0.00 41 1014.9
20260506192804 61 215 2.0 12.0 0.00 0.00 0.00 40 1015.0
20260506192307 60 174 1.0 9.0 0.00 0.00 0.00 40 1015.0
20260506191757 60 306 1.0 9.0 0.00 0.00 0.00 39 1015.1
20260506191255 60 105 3.0 8.0 0.00 0.00 0.00 39 1015.1
20260506190755 60 317 0.0 10.0 0.00 0.00 0.00 42 1015.1
20260506190249 60 352 2.0 10.0 0.00 0.00 0.00 42 1015.3
20260506185750 60 254 2.0 9.0 0.00 0.00 0.00 40 1015.3
20260506185250 59 240 2.0 7.0 0.00 0.00 0.00 41 1015.4
20260506184750 59 348 0.0 5.0 0.00 0.00 0.00 40 1015.5
20260506184251 59 312 2.0 5.0 0.00 0.00 0.00 42 1015.6
20260506184018 58 259 0.0 7.0 0.00 0.00 0.00 43 1015.7
20260506183250 58 211 1.0 7.0 0.00 0.00 0.00 41 1015.8
20260506182746 58 248 0.0 8.0 0.00 0.00 0.00 41 1015.9
20260506182241 58 348 3.0 8.0 0.00 0.00 0.00 41 1015.9
20260506182002 58 13 2.0 8.0 0.00 0.00 0.00 41 1016.0
20260506181241 58 257 2.0 7.0 0.00 0.00 0.00 41 1016.2
20260506180743 58 297 2.0 7.0 0.00 0.00 0.00 40 1016.2
20260506180242 58 0 1.0 5.0 0.00 0.00 0.00 41 1016.2
20260506180005 58 18 2.0 5.0 0.00 0.00 0.00 42 1016.3
20260506175237 57 320 0.0 5.0 0.00 0.00 0.00 41 1016.3
20260506174737 57 203 1.0 6.0 0.00 0.00 0.00 41 1016.5
20260506174237 56 19 1.0 6.0 0.00 0.00 0.00 43 1016.6
20260506173733 55 9 2.0 3.0 0.00 0.00 0.00 44 1016.7
20260506173227 54 15 0.0 4.0 0.00 0.00 0.00 44 1016.7
20260506172728 54 311 1.0 4.0 0.00 0.00 0.00 45 1016.8
20260506172228 54 177 1.0 3.0 0.00 0.00 0.00 44 1016.8
20260506171728 53 132 1.0 5.0 0.00 0.00 0.00 48 1016.9
20260506171223 53 211 0.0 5.0 0.00 0.00 0.00 46 1016.8
20260506170723 53 162 1.0 4.0 0.00 0.00 0.00 47 1016.9
20260506170703 52 119 0.0 5.0 0.00 0.00 0.00 46 1017.0
20260506165718 52 168 0.0 5.0 0.00 0.00 0.00 48 1017.0
20260506165219 51 125 1.0 5.0 0.00 0.00 0.00 48 1017.0
20260506164722 51 143 1.0 5.0 0.00 0.00 0.00 49 1017.3
20260506164217 51 168 2.0 5.0 0.00 0.00 0.00 49 1017.3
20260506163715 51 145 2.0 4.0 0.00 0.00 0.00 51 1017.4
20260506163214 50 142 0.0 4.0 0.00 0.00 0.00 53 1017.5
20260506162709 49 148 1.0 4.0 0.00 0.00 0.00 53 1017.5
20260506162209 49 112 1.0 5.0 0.00 0.00 0.00 53 1017.5
20260506161710 49 175 1.0 6.0 0.00 0.00 0.00 53 1017.6
20260506161434 48 102 0.0 6.0 0.00 0.00 0.00 55 1017.7
20260506160713 48 225 1.0 4.0 0.00 0.00 0.00 55 1017.7
20260506160206 47 96 0.0 4.0 0.00 0.00 0.00 56 1017.7
20260506155705 47 100 1.0 4.0 0.00 0.00 0.00 57 1017.9
20260506155200 47 120 0.0 4.0 0.00 0.00 0.00 58 1017.9
20260506154701 46 80 1.0 4.0 0.00 0.00 0.00 61 1018.1
20260506154201 46 102 0.0 4.0 0.00 0.00 0.00 59 1017.9
20260506153942 45 82 0.0 3.0 0.00 0.00 0.00 61 1017.9
20260506153156 45 115 0.0 4.0 0.00 0.00 0.00 62 1018.1
20260506152654 44 78 1.0 4.0 0.00 0.00 0.00 62 1018.2
20260506152152 44 134 0.0 3.0 0.00 0.00 0.00 62 1018.2
20260506151651 43 110 0.0 3.0 0.00 0.00 0.00 66 1018.1
20260506151147 43 146 0.0 3.0 0.00 0.00 0.00 66 1018.2
20260506150700 43 88 0.0 3.0 0.00 0.00 0.00 68 1018.3
20260506150403 42 102 0.0 3.0 0.00 0.00 0.00 68 1018.4
20260506145637 42 139 0.0 4.0 0.00 0.00 0.00 69 1018.4
20260506145133 42 139 0.0 4.0 0.00 0.00 0.00 73 1018.5
20260506144857 41 132 0.0 2.0 0.00 0.00 0.00 70 1018.5
20260506144133 41 123 0.0 2.0 0.00 0.00 0.00 71 1018.5
20260506143623 40 123 0.0 3.0 0.00 0.00 0.00 74 1018.6
20260506143341 40 124 0.0 3.0 0.00 0.00 0.00 73 1018.6
20260506142613 40 123 0.0 2.0 0.00 0.00 0.00 76 1018.6
20260506142113 39 124 0.0 2.0 0.00 0.00 0.00 76 1018.7
20260506141835 39 124 0.0 1.0 0.00 0.00 0.00 78 1018.7
20260506141109 38 124 0.0 0.0 0.00 0.00 0.00 77 1018.7
20260506140559 37 124 0.0 0.0 0.00 0.00 0.00 80 1018.7
20260506140319 37 124 0.0 0.0 0.00 0.00 0.00 80 1018.7
20260506135548 36 124 0.0 0.0 0.00 0.00 0.00 83 1018.8
20260506135309 35 124 0.0 0.0 0.00 0.00 0.00 88 1018.8
20260506134551 34 124 0.0 0.0 0.00 0.00 0.00 90 1018.8
20260506134046 33 124 0.0 0.0 0.00 0.00 0.00 91 1018.7
20260506133542 32 124 0.0 0.0 0.00 0.00 0.00 92 1018.7
20260506133037 32 124 0.0 0.0 0.00 0.00 0.00 91 1018.8
20260506132529 31 124 0.0 0.0 0.00 0.00 0.00 91 1018.7
20260506132025 31 124 0.0 0.0 0.00 0.00 0.00 90 1018.7
20260506131525 31 124 0.0 0.0 0.00 0.00 0.00 90 1018.7
20260506131025 30 124 0.0 0.0 0.00 0.00 0.00 90 1018.6
20260506130523 30 124 0.0 0.0 0.00 0.00 0.00 90 1018.7
20260506130020 30 124 0.0 0.0 0.00 0.00 0.00 90 1018.8
20260506125520 30 124 0.0 0.0 0.00 0.00 0.00 90 1018.7
20260506125015 30 124 0.0 0.0 0.00 0.00 0.00 89 1018.7
20260506124509 30 124 0.0 0.0 0.00 0.00 0.00 89 1018.7
20260506124004 29 124 0.0 0.0 0.00 0.00 0.00 89 1018.7
20260506123501 29 124 0.0 0.0 0.00 0.00 0.00 89 1018.7
20260506123001 29 124 0.0 0.0 0.00 0.00 0.00 89 1018.8
20260506122501 29 124 0.0 0.0 0.00 0.00 0.00 89 1018.7
20260506122004 29 124 0.0 0.0 0.00 0.00 0.00 88 1018.6
20260506121500 30 124 0.0 0.0 0.00 0.00 0.00 88 1018.7
20260506120956 30 124 0.0 0.0 0.00 0.00 0.00 88 1018.7
20260506120457 30 124 0.0 0.0 0.00 0.00 0.00 88 1018.7
20260506115957 30 124 0.0 0.0 0.00 0.00 0.00 88 1018.7
20260506115500 30 124 0.0 0.0 0.00 0.00 0.00 88 1018.7
20260506114953 30 124 0.0 0.0 0.00 0.00 0.00 88 1018.7
20260506114452 30 124 0.0 0.0 0.00 0.00 0.00 88 1018.7
20260506113952 30 124 0.0 0.0 0.00 0.00 0.00 88 1018.7
20260506113938 30 124 0.0 0.0 0.00 0.00 0.00 88 1018.7
20260506113214 30 124 0.0 0.0 0.00 0.00 0.00 88 1018.7
20260506112928 30 124 0.0 0.0 0.00 0.00 0.00 88 1018.8
20260506111934 30 124 0.0 0.0 0.00 0.00 0.00 88 1018.8
20260506111429 30 124 0.0 0.0 0.00 0.00 0.00 88 1018.8
20260506110929 30 124 0.0 0.0 0.00 0.00 0.00 88 1018.8
20260506110424 30 124 0.0 0.0 0.00 0.00 0.00 88 1018.8
20260506105926 30 124 0.0 0.0 0.00 0.00 0.00 87 1018.8
20260506105421 30 124 0.0 0.0 0.00 0.00 0.00 87 1018.8
20260506104919 30 124 0.0 0.0 0.00 0.00 0.00 87 1018.8
20260506104417 30 124 0.0 0.0 0.00 0.00 0.00 87 1018.9
20260506103900 30 124 0.0 0.0 0.00 0.00 0.00 87 1018.8
20260506103354 31 124 0.0 0.0 0.00 0.00 0.00 87 1018.8
20260506102854 31 124 0.0 0.0 0.00 0.00 0.00 87 1018.7
20260506102345 31 124 0.0 0.0 0.00 0.00 0.00 87 1018.7
20260506101845 31 124 0.0 0.0 0.00 0.00 0.00 86 1018.7
20260506101340 31 124 0.0 0.0 0.00 0.00 0.00 86 1018.8
20260506101321 31 124 0.0 0.0 0.00 0.00 0.00 86 1018.8
20260506100554 31 124 0.0 0.0 0.00 0.00 0.00 86 1018.8
20260506095830 31 124 0.0 0.0 0.00 0.00 0.00 86 1018.8
20260506095546 31 124 0.0 0.0 0.00 0.00 0.00 86 1018.9
20260506095045 31 124 0.0 0.0 0.00 0.00 0.00 86 1018.9
20260506094321 31 124 0.0 0.0 0.00 0.00 0.00 86 1018.8
20260506093820 31 124 0.0 0.0 0.00 0.00 0.00 86 1018.9
20260506093324 31 124 0.0 0.0 0.00 0.00 0.00 86 1018.9
20260506092822 31 124 0.0 0.0 0.00 0.00 0.00 86 1018.8
20260506092317 31 124 0.0 0.0 0.00 0.00 0.00 85 1018.8
20260506091807 31 124 0.0 0.0 0.00 0.00 0.00 85 1018.9
20260506091304 31 124 0.0 0.0 0.00 0.00 0.00 85 1018.8
20260506090754 32 124 0.0 0.0 0.00 0.00 0.00 85 1018.8
20260506090515 32 124 0.0 0.0 0.00 0.00 0.00 84 1018.9
20260506085752 32 124 0.0 0.0 0.00 0.00 0.00 84 1018.8
20260506085241 32 124 0.0 0.0 0.00 0.00 0.00 84 1018.8
20260506085004 32 124 0.0 0.0 0.00 0.00 0.00 84 1018.8
20260506084242 32 124 0.0 0.0 0.00 0.00 0.00 84 1018.7
20260506083953 32 124 0.0 0.0 0.00 0.00 0.00 84 1018.8
20260506083222 32 124 0.0 0.0 0.00 0.00 0.00 84 1018.7
20260506082937 33 124 0.0 0.0 0.00 0.00 0.00 84 1018.8
20260506082215 33 124 0.0 0.0 0.00 0.00 0.00 84 1018.7
20260506081713 33 124 0.0 0.0 0.00 0.00 0.00 84 1018.7
20260506081648 33 124 0.0 0.0 0.00 0.00 0.00 84 1018.8
20260506080706 33 124 0.0 0.0 0.00 0.00 0.00 83 1018.8
20260506080154 33 124 0.0 0.0 0.00 0.00 0.00 83 1018.8
20260506073125 34 124 0.0 0.0 0.00 0.00 0.00 83 1019.1
20260506072831 34 124 0.0 0.0 0.00 0.00 0.00 83 1019.1
20260506072334 34 124 0.0 0.0 0.00 0.00 0.00 83 1019.1
20260506071609 34 124 0.0 0.0 0.00 0.00 0.00 89 1019.2
20260506071110 34 124 0.0 0.0 0.00 0.00 0.00 83 1019.1
20260506070610 34 124 0.0 0.0 0.00 0.00 0.00 83 1019.1
20260506070110 34 124 0.0 0.0 0.00 0.00 0.00 82 1019.1
20260506062046 35 124 0.0 0.0 0.00 0.00 0.00 81 1018.9
20260506061547 35 124 0.0 0.0 0.00 0.00 0.00 80 1018.9
20260506061042 35 124 0.0 0.0 0.00 0.00 0.00 80 1018.9
20260506060747 35 124 0.0 0.0 0.00 0.00 0.00 80 1018.8
20260506050922 36 124 0.0 1.0 0.00 0.00 0.00 77 1018.7
20260506050910 36 124 0.0 1.0 0.00 0.00 0.00 77 1018.8
20260506044413 37 123 0.0 2.0 0.00 0.00 0.00 74 1018.8
20260506043911 38 124 0.0 2.0 0.00 0.00 0.00 74 1018.7
20260506043408 38 123 0.0 2.0 0.00 0.00 0.00 73 1018.7
20260506042909 38 123 0.0 2.0 0.00 0.00 0.00 73 1018.8
20260506042408 38 124 0.0 0.0 0.00 0.00 0.00 72 1018.7
20260506041908 39 124 0.0 0.0 0.00 0.00 0.00 71 1018.7
20260506041629 39 124 0.0 0.0 0.00 0.00 0.00 70 1018.8
20260506040906 39 124 0.0 0.0 0.00 0.00 0.00 69 1018.7
20260506040400 40 124 0.0 0.0 0.00 0.00 0.00 69 1018.6
20260506035857 40 124 0.0 0.0 0.00 0.00 0.00 69 1018.6
20260506035355 40 124 0.0 0.0 0.00 0.00 0.00 68 1018.6
20260506035117 41 124 0.0 0.0 0.00 0.00 0.00 66 1018.6
20260506034355 42 124 0.0 0.0 0.00 0.00 0.00 66 1018.7
20260506033857 42 124 0.0 0.0 0.00 0.00 0.00 65 1018.6
20260506033350 43 124 0.0 0.0 0.00 0.00 0.00 63 1018.5
20260506033108 43 124 0.0 0.0 0.00 0.00 0.00 62 1018.5
20260506032341 44 124 0.0 0.0 0.00 0.00 0.00 61 1018.5
20260506031841 44 124 0.0 0.0 0.00 0.00 0.00 59 1018.5
20260506031605 45 124 0.0 0.0 0.00 0.00 0.00 58 1018.5
20260506030844 46 124 0.0 0.0 0.00 0.00 0.00 58 1018.4
20260506030341 47 124 0.0 0.0 0.00 0.00 0.00 57 1018.4
20260506025836 47 124 0.0 0.0 0.00 0.00 0.00 56 1018.3
20260506025335 48 124 0.0 0.0 0.00 0.00 0.00 54 1018.3
20260506024832 48 124 0.0 0.0 0.00 0.00 0.00 53 1018.3
20260506024333 49 124 0.0 0.0 0.00 0.00 0.00 53 1018.2
20260506023827 49 124 0.0 0.0 0.00 0.00 0.00 52 1018.3
20260506023553 49 124 0.0 0.0 0.00 0.00 0.00 48 1018.2
20260506022825 49 124 0.0 0.0 0.00 0.00 0.00 48 1018.2
20260506022323 49 124 0.0 0.0 0.00 0.00 0.00 46 1018.1
20260506021823 50 124 0.0 0.0 0.00 0.00 0.00 46 1018.1
20260506021324 50 124 0.0 2.0 0.00 0.00 0.00 46 1018.1
20260506021308 50 124 0.0 3.0 0.00 0.00 0.00 44 1018.1
20260506020326 50 124 0.0 3.0 0.00 0.00 0.00 45 1018.1
20260506015817 50 123 0.0 1.0 0.00 0.00 0.00 44 1018.1
20260506015750 50 124 0.0 3.0 0.00 0.00 0.00 43 1018.1
20260506014804 50 116 0.0 3.0 0.00 0.00 0.00 44 1018.1
20260506014304 50 67 0.0 2.0 0.00 0.00 0.00 43 1018.1
20260506014039 50 137 0.0 6.0 0.00 0.00 0.00 43 1017.9
20260506013304 50 138 1.0 6.0 0.00 0.00 0.00 42 1017.9
20260506012759 50 100 0.0 7.0 0.00 0.00 0.00 42 1017.9
20260506012259 50 130 1.0 7.0 0.00 0.00 0.00 42 1018.1
20260506011800 50 154 1.0 6.0 0.00 0.00 0.00 42 1017.9
20260506011301 51 136 2.0 7.0 0.00 0.00 0.00 43 1018.1
20260506010800 51 153 2.0 9.0 0.00 0.00 0.00 41 1018.1
20260506010301 51 126 1.0 9.0 0.00 0.00 0.00 42 1018.1
20260506005755 52 53 2.0 8.0 0.00 0.00 0.00 40 1018.1
20260506005251 52 127 1.0 7.0 0.00 0.00 0.00 39 1018.1
20260506004751 53 102 4.0 9.0 0.00 0.00 0.00 39 1018.1
20260506004250 53 345 2.0 10.0 0.00 0.00 0.00 39 1018.1
20260506003753 53 132 3.0 10.0 0.00 0.00 0.00 38 1018.1
20260506003513 54 128 1.0 9.0 0.00 0.00 0.00 38 1018.1
20260506002751 54 107 3.0 9.0 0.00 0.00 0.00 37 1018.1
20260506002247 54 49 3.0 9.0 0.00 0.00 0.00 37 1018.1
20260506001741 54 115 4.0 9.0 0.00 0.00 0.00 38 1018.1
20260506001241 54 134 2.0 9.0 0.00 0.00 0.00 36 1018.2
20260506000742 54 152 1.0 10.0 0.00 0.00 0.00 38 1018.2
20260506000241 55 188 2.0 10.0 0.00 0.00 0.00 37 1018.3
20260505235742 55 346 1.0 4.0 0.00 0.00 0.00 38 1018.2
20260505235245 54 182 0.0 8.0 0.00 0.00 0.00 36 1018.3
20260505234738 54 113 3.0 8.0 0.00 0.00 0.00 35 1018.3
20260505234232 54 100 2.0 10.0 0.00 0.00 0.00 35 1018.3
20260505233733 54 126 3.0 10.0 0.00 0.00 0.00 34 1018.2
20260505233233 54 90 1.0 7.0 0.00 0.00 0.00 35 1018.3
20260505232734 54 125 2.0 12.0 0.00 0.00 0.00 36 1018.4
20260505232234 54 95 2.0 12.0 0.00 0.00 0.00 35 1018.4
20260505231728 55 109 2.0 11.0 0.00 0.00 0.00 35 1018.4
20260505231228 54 141 1.0 11.0 0.00 0.00 0.00 35 1018.3
20260505230729 55 74 4.0 10.0 0.00 0.00 0.00 34 1018.3
20260505230229 55 94 2.0 13.0 0.00 0.00 0.00 34 1018.4
20260505225729 55 155 2.0 13.0 0.00 0.00 0.00 34 1018.3
20260505225229 55 143 4.0 11.0 0.00 0.00 0.00 34 1018.4
20260505224730 55 75 2.0 11.0 0.00 0.00 0.00 34 1018.5
20260505224228 55 111 1.0 10.0 0.00 0.00 0.00 36 1018.4
20260505223724 55 44 2.0 18.0 0.00 0.00 0.00 35 1018.4
20260505223225 55 5 2.0 18.0 0.00 0.00 0.00 36 1018.5
20260505222725 55 113 2.0 9.0 0.00 0.00 0.00 34 1018.5
20260505222225 55 103 1.0 13.0 0.00 0.00 0.00 34 1018.4
20260505221726 55 330 2.0 13.0 0.00 0.00 0.00 36 1018.5
20260505221225 55 151 3.0 12.0 0.00 0.00 0.00 34 1018.5
20260505220720 55 333 5.0 12.0 0.00 0.00 0.00 33 1018.6
20260505220216 55 144 2.0 9.0 0.00 0.00 0.00 35 1018.6
20260505215716 55 102 1.0 7.0 0.00 0.00 0.00 35 1018.5
20260505215219 55 138 3.0 11.0 0.00 0.00 0.00 33 1018.6
20260505214716 54 123 2.0 11.0 0.00 0.00 0.00 37 1018.6
20260505214216 53 86 1.0 8.0 0.00 0.00 0.00 36 1018.5
20260505213712 53 109 2.0 11.0 0.00 0.00 0.00 36 1018.7
20260505213211 54 136 6.0 13.0 0.00 0.00 0.00 35 1018.8
20260505212712 54 33 4.0 13.0 0.00 0.00 0.00 35 1018.7
20260505212212 53 173 3.0 9.0 0.00 0.00 0.00 39 1018.8
20260505211712 53 88 1.0 6.0 0.00 0.00 0.00 39 1018.8
20260505211212 52 257 0.0 7.0 0.00 0.00 0.00 37 1018.8
20260505210709 52 168 1.0 7.0 0.00 0.00 0.00 37 1018.9